铱星星座 17星 (IRIDIUM 17)

导读

IRIDIUM 17(铱星17)是美国铱星卫星通信系统的组网卫星,于1997年7月9日发射升空。该卫星运行于低地球轨道,采用L波段工作模式,承担全球移动语音和数据通信的中继功能,为航空、航海及偏远区域提供手持设备通信服务,支撑铱星系统实现全球无缝覆盖,在应急响应、军事和商业通信领域发挥重要作用,目前已在轨运行超过28年。

Basic Information
目录编号:
24870
目录名称:
IRIDIUM 17
国际标识:
1997-034B
轨道中心:
EARTH
卫星名称:
铱星星座 17星
卫星全名:
铱星星座 17星 (IRIDIUM 17)
卫星状态:
在轨 (已飞行10656 天)
发射日期:
1997-07-09 UTC
国别 :
美国 (US)
星等 :
--
Orbit Information
数据来源 国际轨道数据 AOE轨道数据
星历时间 2026-09-10T23:47:17+0800
11小时前
查看轨道信息
2026-09-10T07:00:00+0800
1天前
查看轨道信息
半长轴 7142.474km 7142.474km
偏心率 0.0002134 0.0002372
轨道倾角 86.394° 86.395°
近地点辐角 46.729° 37.952°
升交点赤经 45.290° 45.585°
平近点角 313.409° 302.723°
近地点 762.812km 762.642km
远地点 765.862km 766.032km
周期 100.123分钟 100.123分钟
每日圈数 14.382349 14.382347
Detailed Information
平衡模式:
三轴稳定
覆盖范围:
全球
运营商:
铱星通信公司
运营商所在国:
美国
使用方式:
暂无
Satellite Introduction
铱星(Iridium)是由共66个运作中的通信卫星组成的卫星通信系统。这个系统原本规划77个通信卫星,所以用原子序数为77的铱元素来命名。铱卫星允许人们使用手持型电子设备进行全球性的语音及数据通讯。该卫星已退役。
2D Orbit Map
3D Orbit Map
Orbit Altitude Analysis Chart
Orbit Inclination Analysis Chart
Orbit Comprehensive Analysis Chart
View Comprehensive Chart
Conjunction Data List
Event ID Objects TCA Miss Dist (km) Collision Risk Probability Collision Risk Index (CRI) Action
CDM_260912-023302-487003-964226
2026-09-12T
02:33:02+0000
0.695 km
远距离
6.817813E-5 中风险 0.72
Miss Distance Evolution Trend with All Objects
Collision Probability Evolution Trend with All Objects